Время (UTC), дата Ветер
(°,м/с) 
Видим.   Явления Облачность Т
(°С)
Тd
(°С)
f(%) Тe
(°С)
Pmin
(гПа)
dP
(гПа)
Po
(мм)
O2
(г/м3)
Тmin Tmax R s Состояние
почвы
00 01.07.11 280 (З) >10 км  {гроза, ливн. осадки}  5/5 400 м 
[Sc diur, vesp]
+14 +13 94 +19  1011  0.2  719  273           
03 01.07.11 280 (З) >10 км    3/0 средняя 
[Ac trans]
+14.8 +12.2 84 +19  1010.7  0.1  719  272           
06 01.07.11 280 (З) >10 км    3/3 600 м 
[Cu hum]
+18.5 +13.8 74 +27  1010.6  0.6  719  269  +13.2       
09 01.07.11 300 (СЗ) >10 км    5/4 600 м верхняя 
[Cu hum|Ci fib]
+21.9 +12.8 56 +28  1011.3  1.2  720  266           
12 01.07.11 260 (З) >10 км    5/4 1000 м верхняя 
[Cu hum|Ci fib]
+23.7 +11.8 47 +28  1010.8  -0.2  720  265           
15 01.07.11 360 (С) >10 км    4/3 1000 м верхняя 
[Cu hum|Ci fib]
+23.3 +11.1 46 +27  1010.7  -0.2  720  265    +24.3       
18 01.07.11 030 (СВ) >10 км    3/3 <0100 м средняя 
[Ac trans]
+19.3 +11.9 62 +25  1011.5  0.1  720  269    +24.3       
21 01.07.11 140 (ЮВ) >10 км    ясно 
+17 +12 72 +23  1011.5  -0.4  720  271           
00 02.07.11 140 (ЮВ) >10 км    ясно 
+17.3 +12.2 72 +24  1011  -0.4  719  270           
03 02.07.11 130 (ЮВ) >10 км    ясно 
+18.1 +14 77 +28  1010.8  -0.4  719  269           
06 02.07.11 080 (В) >10 км    3/0 верхняя 
[Ci fib]
+22.3 +14.7 62 +32  1009.4  -0.6  719  265  +14.4         
09 02.07.11 070 (В) >10 км    10/4 600 м средняя 
[Cu hum|Ac und]
+24.3 +15.4 58 +35  1008.5  -0.4  719  263           
12 02.07.11 080 (В) >10 км    10/4 600 м кучево-дожд., средняя 
[Cb calv|Ac und]
+24.5 +15.7 58 +36  1007.6  -0.9  718  262           
15 02.07.11 110 (В) >10 км    9/5 1000 м средняя 
[Sc diur, vesp|Ac trans]
+24 +16.7 64 +37  1007.5  -0.2  718  262    +25.6       
18 02.07.11 230 (ЮЗ) >10 км    9/5 1000 м кучево-дожд., средняя 
[Cb calv|Ac trans]
+20.4 +15.9 75 +32  1009.5  1.3  719  266    +25.6       
21 02.07.11 270 (З) >10 км    10/3 1000 м кучево-дожд., средняя 
[Cb calv|Ac und]
+19.8 +16 79 +33  1008.5  -1  718  266           
00 03.07.11 270 (З) >10 км    10/3 1000 м кучево-дожд., средняя 
[Cb calv|Ac und]
+19.3 +16 81 +32  1007.8  -0.8  717  266           
03 03.07.11 250 (З) >10 км    8/3 1000 м кучево-дожд., средняя 
[Cb calv|Ac trans]
+18.8 +15.8 83 +30  1008.8  0.9  718  267           
06 03.07.11 270 (З) >10 км    5/3 600 м средняя 
[Cu hum|Ac trans]
+20.4 +15.6 74 +31  1009.6  719  266  +18         
09 03.07.11 280 (З) >10 км    6/6 700 м кучево-дожд. 
[Cb calv]
+24.9 +16.8 61 +38  1009.2  0.4  719  262           
12 03.07.11 310 (СЗ) >10 км    8/4 600 м кучево-дожд., средняя 
[Cb calv|Ac trans]
+24.8 +17.6 64 +40  1008.7  -0.5  719  262           
15 03.07.11 310 (СЗ) >10 км    6/3 600 м кучево-дожд., средняя 
[Cb calv|Ac trans]
+24.3 +15.8 59 +36  1008.8  719  263    +25.4       
18 03.07.11 270 (З) >10 км    5/3 600 м кучево-дожд., средняя 
[Cb calv|Ac trans]
+20.1 +16.7 81 +33  1010.3  0.8  719  266    +25.4       
21 03.07.11 280 (З) >10 км    4/0 средняя 
[Ac trans]
+18.2 +15.7 85 +30  1010.1  -0.6  719  268           
00 04.07.11 300 (СЗ) >10 км    3/0 средняя 
[Ac trans]
+18.7 +16.3 86 +31  1009.2  -0.6  718  267           
03 04.07.11 280 (З) >10 км    ясно 
+18.8 +17.3 91 +34  1009.4  0.3  719  267           
06 04.07.11 130 (ЮВ) >10 км    1/0 верхняя 
[Ci fib]
+24.1 +17.6 67 +39  1008  -0.4  718  262  +16.8         
09 04.07.11 110 (В) >10 км    4/4 600 м 
[Cu med, cong]
+26.8 +17.9 58 +42  1007.1  -0.4  718  259           
12 04.07.11 100 (В) >10 км    6/5 600 м верхняя 
[Cu med, cong|Ci fib]
+28.7 +16.8 49 +42  1006.1  -0.7  717  258           
15 04.07.11 070 (В) >10 км    10/4 1000 м кучево-дожд., средняя 
[Cb cap|Ac und]
+26.3 +17.8 60 +42  1005.7  -0.8  717  259    +28.9       
18 04.07.11 310 (СЗ) >10 км  гроза, ливневой дождь  10/6 600 м кучево-дожд., средняя 
[Cb cap|Ac und]
+19.2 +14.5 74 +28  1008.6  1.5  718  267    +28.9       
21 04.07.11 260 (З) >10 км  гроза без осадков{ливн. осадки}  10/6 800 м кучево-дожд., средняя 
[Cb cap|Ac und]
+16.5 +15.6 94 +28  1010.2  1.2  719  270           
00 05.07.11 310 (СЗ) >10 км  зарница{гроза, ливн. осадки}  4/3 600 м кучево-дожд., средняя 
[Cb calv|Ac trans]
+16.5 +15.2 92 +27  1009.4  1.2  718  270           
03 05.07.11 220 (ЮЗ) >10 км    3/1 600 м кучево-дожд., средняя 
[Cb calv|Ac trans]
+17.7 +15.9 89 +29  1010.1  0.9  719  269           
06 05.07.11 190 (Ю) >10 км    4/3 600 м кучево-дожд., средняя 
[Cb calv|Ac trans]
+23.2 +18 73 +39  1009.6  0.5  719  263  +15.1    10     
09 05.07.11 320 (СЗ) >10 км    8/6 600 м кучево-дожд., средняя 
[Cb calv|Ac trans]
+24.9 +18.3 67 +41  1009.5  0.2  719  261           
12 05.07.11 330 (СЗ) >10 км    6/4 600 м кучево-дожд., средняя 
[Cb calv|Ac trans]
+25.6 +15.5 54 +36  1008.8  -0.6  719  262           
15 05.07.11 310 (СЗ) >10 км    9/3 600 м кучево-дожд., средняя 
[Cb calv|Ac trans]
+23.3 +15.7 62 +34  1009.7  0.4  719  264    +26.3       
18 05.07.11 250 (З) >10 км  гроза, ливневой дождь  10/6 540 м кучево-дожд., средняя 
[Cb cap|Ac und]
+19.4 +16.8 85 +33  1011.9  1.5  720  267    +26.3  0.3     
21 05.07.11 310 (СЗ) >10 км  {гроза, ливн. осадки}  3/1 1000 м кучево-дожд., средняя 
[Cb calv|Ac trans]
+18.5 +15.2 81 +29  1012  0.1  720  269           
00 06.07.11 330 (СЗ) н/о    н/о 
+18 +16.1 89 +31  1012.5  0.4  721  269           
03 06.07.11 360 (С) >10 км    10/0 средняя 
[Ac und]
+18.9 +16.2 84 +32  1012.8  0.5  721  268           
06 06.07.11 060 (СВ) >10 км    10/0 средняя 
[Ac und]
+22 +17.2 74 +36  1012.2  0.1  721  265  +17.5    0.5     
09 06.07.11 110 (В) >10 км    6/5 1000 м средняя 
[Cu hum|Ac trans]
+26.4 +18.5 62 +43  1009.8  -1.5  720  260           
12 06.07.11 100 (В) >10 км    6/6 1000 м 
[Cu hum]
+28.1 +17.6 53 +43  1008.5  -1  719  259           
15 06.07.11 080 (В) >10 км    ясно 
+28 +16 48 +40  1007.5  -1  718  259    +28.9       
18 06.07.11 150 (ЮВ) >10 км    1/0 средняя 
[Ac trans]
+23 +16 65 +35  1008.4  718  263    +28.9       
21 06.07.11 010 (С) >10 км    ясно 
+21.7 +15.6 68 +33  1007.9  -0.7  718  265           
00 07.07.11 160 (Ю) >10 км    ясно 
+19.9 +15.9 78 +33  1007.3  -0.9  717  266           
03 07.07.11 тихо ()   >10 км    3/0 средняя 
[Ac trans]
+23.4 +18.7 75 +41  1006.6  717  262           
06 07.07.11 260 (З) >10 км    5/3 1000 м средняя 
[Cu hum|Ac trans]
+26.4 +20 68 +47  1007.2  1.1  718  259  +17.9         
09 07.07.11 280 (З) >10 км  в посл. час ливневой дождь  5/3 600 м кучево-дожд., средняя 
[Cb calv|Ac trans]
+26.2 +21 73 +49  1008.1  0.8  719  259           
12 07.07.11 300 (СЗ) >10 км  {ливн. осадки}  6/3 600 м средняя 
[Cu med, cong|Ac trans]
+26 +19.7 68 +46  1008.8  0.6  719  260           
15 07.07.11 270 (З) >10 км  {гроза}  4/3 600 м кучево-дожд., средняя 
[Cb calv|Ac trans]
+25.5 +19.3 69 +44  1010.1  1.2  720  261    +27.6       
18 07.07.11 260 (З) >10 км  {гроза}  3/1 1000 м кучево-дожд., средняя 
[Cb calv|Ac trans]
+21.3 +18.2 82 +37  1011.5  0.6  720  265    +27.6       
21 07.07.11 260 (З) >10 км    ясно 
+19 +17.4 90 +34  1012.2  0.2  721  267           
00 08.07.11 310 (СЗ) >10 км    1/0 верхняя 
[Ci fib]
+21.2 +17.8 81 +36  1012.7  0.9  721  266           
03 08.07.11 240 (ЮЗ) >10 км    8/0 средняя, верхняя 
[Ac trans|Ci]
+20.1 +17.5 85 +35  1013.6  0.7  722  267           
06 08.07.11 300 (СЗ) >10 км  слаб. ливневой дождь, в посл. час гроза  9/4 600 м кучево-дожд., средняя 
[Cb cap|Ac trans]
+21.7 +18.5 82 +38  1014.5  1.1  723  265  +19         
09 08.07.11 310 (СЗ) >10 км  {ливн. осадки}  6/3 600 м средняя 
[Sc diur, vesp|Ac trans]
+26.4 +16.2 53 +38  1014.5  0.7  723  262           
12 08.07.11 350 (С) >10 км  {ливн. осадки}  4/3 1000 м средняя 
[Cu hum|Ac trans]
+27.9 +16.4 50 +40  1014  -0.2  723  261           
15 08.07.11 280 (З) >10 км    3/3 1000 м 
[Sc diur, vesp]
+27.1 +17.5 56 +42  1014.4  0.2  723  261    +28       
18 08.07.11 310 (СЗ) >10 км    8/4 1000 м кучево-дожд., средняя 
[Cb calv|Ac trans]
+24.6 +16.9 62 +38  1015.6  0.7  724  264    +28     
21 08.07.11 300 (СЗ) >10 км    3/1 1000 м кучево-дожд., средняя 
[Cb calv|Ac trans]
+23.1 +16.6 67 +36  1015.8  0.1  724  265           
00 09.07.11 330 (СЗ) >10 км    8/5 1000 м кучево-дожд., средняя 
[Cb calv|Ac trans]
+21.9 +16 69 +33  1016.9  0.9  724  267           
03 09.07.11 250 (З) >10 км    8/3 1000 м кучево-дожд., средняя 
[Cb calv|Ac trans]
+21 +16.4 75 +33  1017.8  0.7  725  268           
06 09.07.11 010 (С) >10 км    8/0 средняя 
[Ac trans]
+25.5 +16.5 57 +38  1017.5  0.4  725  264  +21         
09 09.07.11 350 (С) >10 км    10/4 1000 м средняя 
[Sc|Ac und]
+26.1 +16.7 56 +39  1016.9  -0.4  725  263           
12 09.07.11 330 (СЗ) >10 км    10/4 1000 м средняя 
[Sc|Ac und]
+26.8 +17.5 57 +41  1015.9  -0.8  724  262           
15 09.07.11 280 (З) >10 км    10/4 1000 м кучево-дожд., средняя 
[Cb calv|Ac und]
+25.4 +17.1 60 +39  1015.8  -0.3  724  263    +27.7       
18 09.07.11 270 (З) >10 км    3/0 средняя 
[Ac und]
+21.7 +17.1 75 +35  1016.4  724  266    +27.7       
21 09.07.11 280 (З) >10 км    4/0 средняя 
[Ac trans]
+23 +16.6 67 +36  1015.2  -1  723  265           
00 10.07.11 300 (СЗ) >10 км    6/0 средняя 
[Ac As]
+21.6 +16.4 72 +34  1014.7  -0.7  723  266           
03 10.07.11 310 (СЗ) >10 км    4/3 1000 м средняя 
[Sc|Ac trans]
+21.8 +16.5 72 +34  1014.5  0.1  723  266           
06 10.07.11 180 (Ю) >10 км    3/1 600 м средняя 
[Cu hum|Ac trans]
+26.1 +16.1 54 +38  1013  -0.7  722  262  +20.4         
09 10.07.11 260 (З) >10 км    3/3 600 м 
[Cu hum]
+27.4 +16.3 51 +40  1011.8  -0.9  721  261           
12 10.07.11 250 (З) >10 км    3/3 600 м 
[Cu hum]
+28.2 +16.4 49 +41  1010.2  -1.4  720  259           
15 10.07.11 300 (СЗ) >10 км    3/1 1000 м верхняя 
[Cu med, cong|Ci fib]
+26.7 +16.7 54 +40  1010.1  -0.3  720  261    +28.5       
18 10.07.11 270 (З) >10 км    3/3 1000 м кучево-дожд., верхняя 
[Cb calv|Ci fib]
+21.7 +17.4 77 +36  1011.1  -0.1  720  265    +28.5       
21 10.07.11 280 (З) >10 км    3/0 средняя 
[Ac trans]
+21.8 +16.9 74 +35  1010.8  -0.2  720  265           
00 11.07.11 280 (З) >10 км    3/0 средняя 
[Ac trans]
+20.3 +16.9 81 +34  1010.4  -0.7  719  266           
03 11.07.11 260 (З) >10 км    3/1 1000 м кучево-дожд., верхняя 
[Cb calv|Ci fib]
+20.1 +18 88 +36  1010.5  0.1  719  266           
06 11.07.11 270 (З) >10 км    4/4 600 м 
[Cu hum]
+24 +19.1 74 +42  1009.7  719  262  +18.8         
09 11.07.11 270 (З) >10 км    8/5 600 м кучево-дожд., средняя 
[Cb calv|Ac trans]
+26.3 +17.8 60 +42  1008.8  -0.5  719  260           
12 11.07.11 290 (З) >10 км    8/8 800 м кучево-дожд. 
[Cb calv]
+27.8 +16.4 50 +40  1008  -0.6  719  259           
15 11.07.11 270 (З) >10 км    6/4 600 м кучево-дожд., средняя 
[Cb calv|Ac trans]
+24.3 +18.6 71 +41  1008.8  0.2  719  262    +27.8       
18 11.07.11 310 (СЗ) >10 км    5/3 1000 м кучево-дожд., средняя 
[Cb calv|Ac trans]
+23 +16.3 66 +35  1010  0.9  719  264    +27.8       
21 11.07.11 340 (С) >10 км    4/0 средняя 
[Ac trans]
+23 +16.3 66 +35  1010  0.2  720  264           
00 12.07.11 020 (С) >10 км    4/0 средняя 
[Ac trans]
+19.4 +15.8 80 +31  1010.8  720  267           
03 12.07.11 010 (С) >10 км    ясно 
+20.8 +16.5 76 +33  1011.2  0.6  720  266           
06 12.07.11 070 (В) >10 км    1/0 средняя 
[Ac trans]
+24.8 +17.4 63 +39  1011.3  0.8  721  262  +19.1         
09 12.07.11 080 (В) >10 км    9/8 600 м кучево-дожд., средняя 
[Cb calv|Ac trans]
+26.1 +16.7 56 +39  1010.9  -0.2  720  261           
12 12.07.11 070 (В) >10 км    8/8 600 м кучево-дожд., средняя 
[Cb calv|Ac trans]
+26.6 +15.8 52 +38  1010.3  -0.4  720  261           
15 12.07.11 080 (В) >10 км    8/6 900 м кучево-дожд., средняя 
[Cb calv|Ac trans]
+26.5 +14.9 49 +36  1010.2  -0.2  720  261    +28       
18 12.07.11 110 (В) >10 км    8/6 1000 м кучево-дожд., средняя 
[Cb calv|Ac trans]
+23 +16.8 68 +36  1012.1  1.3  721  264    +28       
21 12.07.11 100 (В) >10 км    3/0 средняя 
[Ac trans]
+19.5 +17.5 88 +35  1012.7  0.1  721  267           
00 13.07.11 080 (В) 2000 м    8/0 средняя 
[Ac trans]
+18.4 +17.3 93 +33  1013.1  0.2  721  268           
03 13.07.11 100 (В) >10 км    9/0 верхняя 
[Ci fib]
+18.5 +16.7 89 +32  1014  0.9  722  269           
06 13.07.11 100 (В) 10  >10 км    9/0 верхняя 
[Ci]
+23 +8.5 40 +23  1013.4  0.1  722  267  +17.9         
09 13.07.11 110 (В) 10  >10 км    8/0 верхняя 
[Ci fib]
+25.2 +10.2 39 +27  1012.7  -0.3  722  264           
12 13.07.11 110 (В) >10 км    6/1 600 м верхняя 
[Cu hum|Ci fib]
+26.3 +11 38 +30  1012.5  722  263           
15 13.07.11 090 (В) >10 км    8/3 1000 м кучево-дожд., средняя 
[Cb calv|Ac trans]
+24.8 +15.2 55 +35  1012.4  -0.3  721  263    +26.9       
18 13.07.11 120 (ЮВ) >10 км    6/0 средняя 
[Ac trans]
+21 +15.8 72 +32  1014.1  722  267    +26.9       
21 13.07.11 100 (В) >10 км    8/0 средняя 
[Ac trans]
+19.8 +14 69 +28  1013.9  722  268           
00 14.07.11 090 (В) н/о    н/о 
+18.7 +12.4 67 +24  1014.6  0.4  722  270           
03 14.07.11 100 (В) >10 км    8/1 1000 м кучево-дожд., средняя 
[Cb calv|Ac trans]
+18 +13.7 76 +25  1014.6  0.1  722  270           
06 14.07.11 110 (В) >10 км    8/3 600 м средняя, верхняя 
[Sc|Ac trans|Ci fib]
+21.6 +15.5 68 +32  1014.1  0.1  722  266  +17.9         
09 14.07.11 100 (В) >10 км    6/4 600 м средняя 
[Sc|Ac As]
+25.6 +15.8 55 +37  1013.2  0.1  722  263           
12 14.07.11 110 (В) >10 км    8/3 600 м средняя, верхняя 
[Sc|Ac trans|Ci sp]
+28.6 +15.6 45 +39  1011.9  -0.7  722  260           
15 14.07.11 110 (В) >10 км    8/0 средняя 
[Ac trans]
+28.6 +14.2 41 +37  1011.4  -0.5  721  260    +29.6       
18 14.07.11 100 (В) >10 км    6/0 средняя, верхняя 
[Ac trans|Ci fib]
+23 +15.5 63 +34  1012.9  0.5  722  265    +29.6       
21 14.07.11 120 (ЮВ) >10 км    6/0 средняя, верхняя 
[Ac trans|Cs]
+22.3 +13.5 57 +29  1013  0.1  721  266           
00 15.07.11 090 (В) >10 км    3/0 средняя 
[Ac trans]
+19.2 +15.4 79 +30  1013.2  -0.3  721  268           
03 15.07.11 100 (В) >10 км    4/0 средняя, верхняя 
[Ac trans|Ci fib]
+19.1 +17.1 88 +33  1013.5  0.4  722  268           
06 15.07.11 110 (В) >10 км    8/1 1000 м верхняя 
[Cu hum|Ci fib]
+23.9 +15.4 59 +34  1013  0.3  722  264  +18         
09 15.07.11 100 (В) >10 км    6/1 600 м верхняя 
[Cu hum|Ci fib]
+29.2 +12.9 37 +35  1011.6  0.3  721  260           
12 15.07.11 110 (В) >10 км    6/3 600 м средняя 
[Cu hum|Ac trans]
+28.8 +12.4 36 +34  1011  -0.7  721  260           
15 15.07.11 080 (В) >10 км    4/3 600 м верхняя 
[Cu med, cong|Ci fib]
+29.7 +14.1 39 +38  1009.4  -1.3  720  259    +30.6       
18 15.07.11 070 (В) >10 км    4/0 средняя, верхняя 
[Ac trans|Ci fib]
+25.5 +11.6 42 +30  1009.8  -0.4  720  263    +30.6       
21 15.07.11 090 (В) >10 км    6/0 верхняя 
[Ci]
+20.7 +12.3 59 +26  1010.5  0.1  719  267           
00 16.07.11 100 (В) >10 км    6/0 верхняя 
[Ci fib]
+19.2 +15.1 77 +30  1009.9  -0.8  719  267           
03 16.07.11 060 (СВ) >10 км    8/1 1000 м кучево-дожд., средняя, верхняя 
[Cb calv|Ac trans|Ci fib]
+19.3 +15.4 78 +31  1009.6  -0.2  719  267           
06 16.07.11 090 (В) >10 км    10/4 1000 м кучево-дожд., средняя 
[Cb calv|Ac und]
+22.9 +17.9 73 +38  1009.6  0.6  719  263  +18         
09 16.07.11 110 (В) >10 км    8/3 1000 м средняя 
[Sc diur, vesp|Ac trans]
+28.5 +11.3 34 +32  1008.4  -0.4  719  260           
12 16.07.11 090 (В) >10 км    5/0 средняя, верхняя 
[Ac trans|Ci fib]
+31.4 +9.2 25 +32  1006.9  -1  718  258           
15 16.07.11 080 (В) >10 км    5/0 средняя, верхняя 
[Ac trans|Ci fib]
+30.2 +8.3 25 +30  1005.2  -1.9  717  259    +31.5       
18 16.07.11 080 (В) >10 км    8/0 средняя, верхняя 
[Ac trans|Ci fib]
+25.6 +7.1 31 +26  1007.1  1.1  718  263    +31.5       
21 16.07.11 100 (В) >10 км    8/0 средняя, верхняя 
[Ac trans|Ci fib]
+22.7 +8.2 39 +23  1007.1  -0.4  717  265           
00 17.07.11 100 (В) >10 км    8/0 средняя 
[Ac trans]
+20.3 +8.2 46 +20  1007.4  0.1  717  268           
03 17.07.11 080 (В) >10 км    8/3 1000 м кучево-дожд., средняя 
[Cb calv|Ac trans]
+19.7 +11.8 60 +26  1008  0.5  718  267           
06 17.07.11 100 (В) >10 км    8/3 1000 м кучево-дожд., средняя 
[Cb calv|Ac trans]
+22.9 +16.3 66 +35  1007.9  0.6  718  263  +17.5         
09 17.07.11 100 (В) 10  >10 км    3/3 1000 м 
[Sc]
+31 +10.9 29 +34  1006.7  0.1  718  258           
12 17.07.11 080 (В) >10 км    1/1 1000 м 
[Sc]
+32.6 +8.1 22 +33  1005.3  -1  717  257           
15 17.07.11 100 (В) >10 км    3/3 1000 м 
[Sc]
+30.7 +9 26 +31  1005.3  -0.3  717  258    +32.6       
18 17.07.11 110 (В) >10 км    6/4 1000 м средняя 
[Sc|Ac trans]
+24.8 +7.8 34 +25  1007.1  0.8  718  264    +32.6       
21 17.07.11 110 (В) >10 км    ясно 
+21.8 +9.5 45 +23  1007.8  0.2  718  266           
00 18.07.11 130 (ЮВ) >10 км    ясно 
+18.4 +11.1 62 +23  1008  -0.4  717  269           
03 18.07.11 090 (В) >10 км    3/3 1000 м верхняя 
[Sc|Ci fib]
+18.9 +13.8 72 +28  1007.8  717  267           
06 18.07.11 100 (В) >10 км    1/0 верхняя 
[Ci fib]
+24.8 +15 54 +35  1006.7  717  262  +17         
09 18.07.11 100 (В) >10 км    3/0 верхняя 
[Ci fib]
+29 +13.5 39 +36  1005  -1  717  258           
12 18.07.11 090 (В) >10 км    3/0 верхняя 
[Ci fib]
+31.7 +12.3 31 +37  1003.3  -1.2  716  256           
15 18.07.11 090 (В) >10 км    8/0 средняя, верхняя 
[Ac trans|Ci fib]
+29.3 +11 32 +33  1003.3  -0.5  715  258    +32.1       
18 18.07.11 090 (В) >10 км    8/0 средняя 
[Ac trans]
+24.6 +11.2 43 +28  1005.1  0.9  716  263    +32.1       
21 18.07.11 090 (В) >10 км    6/0 средняя 
[Ac trans]
+22.6 +12.2 52 +28  1005  -0.4  716  264           
00 19.07.11 130 (ЮВ) >10 км    8/3 600 м средняя 
[Sc|Ac trans]
+21.4 +13.5 61 +29  1005.3  0.1  716  265           
03 19.07.11 090 (В) >10 км    8/3 1000 м средняя 
[Sc|Ac trans]
+20 +16.2 79 +32  1006.2  0.7  716  265           
06 19.07.11 090 (В) >10 км    8/3 1000 м средняя 
[Sc|Ac trans]
+22.6 +17.1 71 +37  1006.5  0.7  717  263  +19.4         
09 19.07.11 060 (СВ) >10 км    8/1 600 м средняя 
[Cu hum|Ac trans]
+30 +10 29 +32  1005.2  0.1  717  258           
12 19.07.11 070 (В) >10 км    6/0 средняя 
[Ac trans]
+30.7 +11.3 30 +35  1004.4  -0.7  716  257           
15 19.07.11 070 (В) >10 км    8/3 600 м кучево-дожд., средняя 
[Cb calv|Ac trans]
+29.2 +13.2 37 +36  1004.2  -0.4  716  258    +31.7       
18 19.07.11 240 (ЮЗ) >10 км    6/3 1000 м кучево-дожд., средняя 
[Cb calv|Ac trans]
+23.1 +17.2 69 +37  1006.2  1.1  717  262    +31.7       
21 19.07.11 тихо ()   >10 км    8/0 средняя, верхняя 
[Ac trans|Ci fib]
+23 +12.3 51 +28  1005.7  -0.6  716  264           
00 20.07.11 010 (С) >10 км    4/0 средняя 
[Ac trans]
+20.6 +15.4 72 +31  1005.9  0.1  716  265           
03 20.07.11 тихо ()   >10 км    9/0 средняя 
[Ac trans]
+21.2 +16.9 76 +35  1006.1  0.3  716  264           
06 20.07.11 140 (ЮВ) >10 км    10/0 средняя, верхняя 
[Ac As|Ci sp]
+25.1 +17.8 64 +41  1005.6  0.2  717  260  +19.6         
09 20.07.11 160 (Ю) >10 км    10/1 600 м средняя, верхняя 
[Cu hum|Ac trans|Cs]
+30 +18.1 49 +46  1004.6  0.2  716  256           
12 20.07.11 200 (Ю) >10 км    8/4 600 м кучево-дожд., средняя, верхняя 
[Cb cap|Ac As|Ci sp]
+30.4 +15.6 41 +41  1003.7  -0.8  716  256           
15 20.07.11 360 (С) >10 км  гроза без осадков{ливн. осадки}  10/5 1000 м кучево-дожд., средняя 
[Cb calv|Ac As]
+22.9 +17.8 73 +38  1005.4  0.5  716  262    +32.1       
18 20.07.11 040 (СВ) >10 км  гроза, ливневой дождь  10/8 400 м кучево-дожд., средняя 
[Cb cap|Ac und]
+19.3 +18.6 96 +37  1007.4  1.4  717  265    +32.1       
21 20.07.11 090 (В) >10 км  {гроза, ливн. осадки}  8/3 600 м кучево-дожд., средняя, верхняя 
[Cb cap|Ac As|Ci ing]
+20.3 +17.8 86 +36  1005.1  -2.1  716  264           
00 21.07.11 220 (ЮЗ) >10 км  {гроза, ливн. осадки}  8/3 600 м кучево-дожд., средняя 
[Cb calv|Ac trans]
+19.7 +16.6 82 +34  1004.5  -0.7  715  265           
03 21.07.11 010 (С) >10 км    9/3 1000 м кучево-дожд., средняя 
[Cb calv|Ac trans]
+20 +16.3 79 +32  1004  -0.4  715  265           
06 21.07.11 310 (СЗ) >10 км    9/4 1000 м кучево-дожд., средняя 
[Cb calv|Ac trans]
+25.1 +15.5 55 +36  1002.8  -0.3  715  260  +18.8    17     
09 21.07.11 050 (СВ) >10 км    6/0 средняя 
[Ac trans]
+28 +15.4 46 +39  1002.3  715  258           
12 21.07.11 130 (ЮВ) >10 км    8/3 1000 м кучево-дожд., средняя 
[Cb calv|Ac trans]
+30.6 +16.3 42 +43  1001.1  -0.6  714  255           
15 21.07.11 160 (Ю) >10 км    8/1 1000 м кучево-дожд., средняя 
[Cb calv|Ac trans]
+29.3 +19.3 55 +48  1001.1  -0.2  714  255    +31.5       
18 21.07.11 210 (ЮЗ) >10 км    8/5 1000 м кучево-дожд., средняя 
[Cb calv|Ac trans]
+25.8 +19.6 69 +45  1002.2  0.5  714  258    +31.5       
21 21.07.11 090 (В) >10 км    6/1 1000 м кучево-дожд., средняя 
[Cb calv|Ac trans]
+23 +18.2 74 +39  1002.2  -0.5  714  261           
00 22.07.11 120 (ЮВ) н/о    н/о 
+21.3 +12.6 58 +27  1002.6  714  264           
03 22.07.11 120 (ЮВ) >10 км    8/0 кучево-дожд., средняя 
[Cb calv|Ac trans]
+21.4 +14.3 64 +30  1003.3  715  264           
06 22.07.11 080 (В) >10 км    10/3 1000 м средняя 
[Sc|Ac und]
+25.5 +13.9 49 +34  1003.4  0.7  715  261  +20.2         
09 22.07.11 140 (ЮВ) >10 км    6/0 средняя, верхняя 
[Ac trans|Ci fib]
+29.6 +13.1 36 +36  1002.9  0.2  715  257           
12 22.07.11 250 (З) >10 км    4/0 средняя 
[Ac trans]
+31.7 +11.9 30 +37  1002.5  715  256           
15 22.07.11 100 (В) >10 км    6/0 средняя 
[Ac trans]
+32.3 +14.1 33 +41  1002.6  0.2  715  255    +33.1       
18 22.07.11 260 (З) >10 км    8/3 600 м кучево-дожд., средняя 
[Cb calv|Ac trans]
+23.9 +15.2 58 +34  1005.1  716  262    +33.1       
21 22.07.11 270 (З) >10 км  гроза без осадков  8/4 600 м кучево-дожд., средняя 
[Cb calv|Ac trans]
+22.9 +16.1 66 +35  1006.7  1.4  717  263           
00 23.07.11 020 (С) 2000 м  {гроза}  4/0 средняя 
[Ac trans]
+20.8 +16.5 76 +34  1007.3  0.2  717  265           
03 23.07.11 360 (С) н/о  {ливн. осадки}  8/4 1000 м кучево-дожд., средняя 
[Cb calv|Ac trans]
+21 +17.1 78 +35  1008.1  0.2  718  265           
06 23.07.11 030 (СВ) >10 км  {ливн. осадки}  3/1 1000 м кучево-дожд., верхняя 
[Cb calv|Ci fib]
+25.2 +17.9 64 +41  1007.9  0.5  718  261  +20.6    0.0     
09 23.07.11 050 (СВ) >10 км  слаб. ливневой дождь  8/4 600 м кучево-дожд., средняя, верхняя 
[Cb calv|Ac trans|Ci fib]
+25.5 +20.2 73 +46  1007.8  718  260           
12 23.07.11 280 (З) >10 км  гроза, ливневой дождь  10/5 600 м кучево-дожд., средняя 
[Cb cap|Ac und]
+23.3 +20.7 85 +45  1007.7  -0.4  718  261           
15 23.07.11 340 (С) >10 км  гроза без осадков{ливн. осадки}  10/4 600 м кучево-дожд., средняя 
[Cb cap|Ac und]
+23.7 +18.4 72 +40  1007.2  -0.4  718  262    +27.5       
18 23.07.11 300 (СЗ) >10 км  гроза, ливневой дождь  10/5 600 м кучево-дожд., средняя 
[Cb cap|Ac und]
+18.8 +17.9 95 +34  1010.8  2.5  720  267    +27.5  0.8     
21 23.07.11 010 (С) >10 км  гроза, ливневой дождь  10/6 100 м кучево-дожд., средняя 
[Cb cap|Ac und]
+18.8 +18.5 98 +36  1010.4  2.5  719  267           
00 24.07.11 010 (С) >10 км  слаб. ливневой дождь{гроза}  10/5 1000 м кучево-дожд., средняя 
[Cb calv|Ac und]
+18.5 +18.2 98 +35  1010.2  -0.3  719  267           
03 24.07.11 130 (ЮВ) 0800 м  слаб. ливневой дождь{туман}  10/6 60 м кучево-дожд., средняя 
[Cb calv|Ac und]
+18.8 +18.4 98 +36  1010.4  0.2  719  267           
06 24.07.11 200 (Ю) >10 км  {ливн. осадки, туман}  10/5 180 м кучево-дожд., средняя 
[Cb calv|Ac und]
+20.1 +18.8 92 +38  1010.1  719  265  +18.4    19     
09 24.07.11 090 (В) >10 км  слаб. ливневой дождь  10/6 270 м кучево-дожд., средняя 
[Cb cap|Ac und]
+22.1 +19.3 84 +41  1010.3  0.5  720  264           
12 24.07.11 350 (С) >10 км  {ливн. осадки}  10/5 1000 м кучево-дожд., средняя 
[Cb calv|Ac und]
+24.1 +17.9 68 +40  1009  -0.9  719  262           
15 24.07.11 350 (С) >10 км    10/4 1000 м кучево-дожд., средняя 
[Cb calv|Ac und]
+22.3 +19.9 86 +42  1008.5  -0.7  718  263    +24.5       
18 24.07.11 310 (СЗ) >10 км  {ливн. осадки}  10/3 800 м кучево-дожд., средняя 
[Cb cap|Ac und]
+20.7 +19 90 +39  1009.1  0.3  719  265    +24.5  0.3     
21 24.07.11 090 (В) >10 км    3/3 1000 м 
[Sc]
+19.1 +16.4 84 +32  1008.7  -0.7  718  267           
00 25.07.11 100 (В) >10 км    3/0 средняя 
[Ac trans]
+18.9 +14.4 75 +28  1008.5  -0.3  718  267           
03 25.07.11 100 (В) >10 км    10/0 средняя, верхняя 
[Ac und|Ci sp]
+18.5 +15.3 82 +29  1009  0.5  718  268           
06 25.07.11 110 (В) >10 км    9/1 600 м верхняя 
[Cu hum|Ci fib]
+22 +17.2 74 +36  1008.7  0.3  718  264  +17.2         
09 25.07.11 110 (В) >10 км    8/1 600 м верхняя 
[Cu hum|Ci fib]
+24.1 +18.9 73 +42  1008.6  0.3  719  262           
12 25.07.11 130 (ЮВ) >10 км    3/0 средняя 
[Ac trans]
+29.4 +19.6 56 +49  1007  -0.6  718  257           
15 25.07.11 140 (ЮВ) >10 км    3/0 верхняя 
[Ci fib]
+30 +19 52 +48  1006.8  -0.1  718  256    +30.5       
18 25.07.11 350 (С) >10 км    6/0 верхняя 
[Ci fib]
+25 +18.8 68 +42  1008.8  719  261    +30.5       
21 25.07.11 070 (В) >10 км    3/0 верхняя 
[Ci fib]
+22.5 +18.5 78 +39  1009.3  719  263           
00 26.07.11 120 (ЮВ) >10 км    3/0 верхняя 
[Ci fib]
+20.8 +17.4 81 +35  1010.8  1.1  720  266           
03 26.07.11 200 (Ю) >10 км    3/0 средняя 
[Ac trans]
+21.3 +18.9 86 +39  1011.5  0.5  720  265           
06 26.07.11 080 (В) >10 км    3/0 средняя 
[Ac trans]
+28.9 +20.4 60 +50  1011.1  0.8  721  258  +17.2         
09 26.07.11 120 (ЮВ) н/о    н/о 
+31.2 +19.1 49 +49  1011.1  0.4  721  256           
12 26.07.11 120 (ЮВ) >10 км    4/0 средняя 
[Ac trans]
+33.9 +18.6 40 +51  1010.4  -0.3  721  254           
15 26.07.11 030 (СВ) >10 км    ясно 
+33.7 +17.6 38 +48  1010.6  0.1  721  255    +34.4       
18 26.07.11 330 (СЗ) >10 км    ясно 
+28.9 +18.2 52 +45  1012.1  0.7  722  259    +34.4       
21 26.07.11 320 (СЗ) >10 км    ясно 
+27.6 +15.9 49 +39  1012.2  -0.2  722  261           
00 27.07.11 тихо ()   >10 км    ясно 
+25.1 +15.8 56 +36  1012.3  -0.3  721  263           
03 27.07.11 160 (Ю) >10 км    3/0 средняя 
[Ac trans]
+25.9 +17.8 61 +41  1013  0.9  722  262           
06 27.07.11 170 (Ю) >10 км    ясно 
+31.6 +20.4 52 +53  1012.4  0.4  722  256  +22.2         
09 27.07.11 110 (В) >10 км    ясно 
+34.7 +20.2 43 +55  1011.8  0.1  722  253           
12 27.07.11 120 (ЮВ) >10 км    3/3 600 м 
[Cu hum]
+35.6 +18.2 36 +52  1011  -0.7  722  253           
15 27.07.11 150 (ЮВ) >10 км    3/3 600 м 
[Cu med, cong]
+35.5 +17.9 35 +51  1010.3  -0.7  721  253    +36.5       
18 27.07.11 330 (СЗ) >10 км    3/0 средняя 
[Ac trans]
+30.4 +19.7 53 +50  1011.6  0.4  722  257    +36.5       
21 27.07.11 310 (СЗ) >10 км    3/0 средняя 
[Ac trans]
+28.7 +19.4 57 +47  1011.3  -0.6  721  258           
00 28.07.11 310 (СЗ) >10 км    ясно 
+27.9 +17.9 55 +43  1010.9  -0.5  721  259           
03 28.07.11 280 (З) >10 км    5/5 600 м 
[Sc]
+26 +19.5 67 +45  1011.9  0.7  721  261           
06 28.07.11 280 (З) >10 км    3/0 средняя 
[Ac trans]
+30.9 +19.3 50 +49  1011.3  0.2  721  257  +25         
09 28.07.11 290 (З) >10 км    3/0 средняя 
[Ac trans]
+33.5 +18 40 +49  1010.6  -0.3  721  255           
12 28.07.11 310 (СЗ) >10 км    3/0 средняя 
[Ac trans]
+34.2 +17.2 36 +48  1009.8  -0.7  721  254           
15 28.07.11 320 (СЗ) >10 км    3/0 средняя 
[Ac trans]
+32.9 +17.7 40 +48  1009.4  -0.6  720  255    +34.5       
18 28.07.11 320 (СЗ) >10 км    ясно 
+29.1 +17.7 50 +44  1010.7  0.6  721  258    +34.5       
21 28.07.11 330 (СЗ) >10 км    ясно 
+27.4 +18.4 58 +44  1010.5  -0.5  720  260           
00 29.07.11 320 (СЗ) >10 км    ясно 
+25.6 +17.7 62 +41  1009.9  -0.8  720  261           
03 29.07.11 330 (СЗ) >10 км    ясно 
+25.3 +16.9 60 +39  1009.7  -0.3  720  262           
06 29.07.11 010 (С) >10 км    ясно 
+30.6 +16.5 43 +43  1008.6  -0.2  719  257  +24.6         
09 29.07.11 010 (С) >10 км    ясно 
+33.6 +16.8 37 +47  1007  -1  719  254           
12 29.07.11 130 (ЮВ) >10 км    ясно 
+35.3 +16.5 33 +48  1005  -1.7  717  252           
15 29.07.11 360 (С) >10 км    ясно 
+34.2 +18.3 39 +51  1004.3  -0.8  717  253    +36.2       
18 29.07.11 350 (С) >10 км    ясно 
+30.3 +17.3 46 +45  1004.9  717  256    +36.2       
21 29.07.11 020 (С) >10 км    ясно 
+27.5 +16.1 50 +39  1004.5  -0.8  716  259           
00 30.07.11 010 (С) >10 км    ясно 
+25.9 +13.9 47 +34  1003.7  -1.1  715  260           
03 30.07.11 030 (СВ) >10 км    4/0 средняя 
[Ac trans]
+25.7 +14.7 51 +35  1003.2  -0.5  715  260           
06 30.07.11 120 (ЮВ) >10 км    8/3 1000 м кучево-дожд., средняя 
[Cb cap|Ac cast]
+28.6 +18.5 54 +46  1001.9  -0.6  714  256  +23.1         
09 30.07.11 120 (ЮВ) >10 км    ясно 
+36 +13.5 26 +43  999.9  -0.9  714  251           
12 30.07.11 140 (ЮВ) >10 км    н/о 
+38.5 +10.4 18 +41  998.7  -0.9  713  250           
15 30.07.11 220 (ЮЗ) >10 км    ясно 
+36 +17.7 34 +51  998.7  -0.2  713  250    +38.5       
18 30.07.11 300 (СЗ) >10 км    ясно 
+30.2 +20.5 56 +52  1000.6  1.1  714  254    +38.5       
21 30.07.11 300 (СЗ) >10 км    ясно 
+26.7 +20.7 70 +49  1002  0.7  714  257           
00 31.07.11 290 (З) >10 км    ясно 
+25 +21.4 80 +49  1002.2  714  258           
03 31.07.11 300 (СЗ) >10 км    ясно 
+23.7 +20.9 84 +46  1002.9  0.5  715  260           
06 31.07.11 290 (З) >10 км    1/0 верхняя 
[Ci fib]
+27.3 +21.2 69 +51  1003.1  0.8  715  257  +23.5         
09 31.07.11 290 (З) >10 км    4/1 1000 м верхняя 
[Cu hum|Ci fib]
+30.8 +21.9 59 +56  1002.7  0.2  715  253           
12 31.07.11 290 (З) >10 км    4/4 600 м 
[Cu hum]
+31.3 +21.5 56 +55  1003  0.3  716  253           
15 31.07.11 270 (З) >10 км    8/4 600 м кучево-дожд., верхняя 
[Cb calv|Ci fib]
+28.8 +20.9 62 +51  1004.2  0.8  716  256    +32.1       
18 31.07.11 290 (З) >10 км    1/1 600 м кучево-дожд. 
[Cb calv]
+26.2 +16.2 54 +38  1005.9  717  260    +32.1       
21 31.07.11 300 (СЗ) >10 км    1/0 верхняя 
[Ci fib]
+23.7 +16.2 63 +36  1006.9  0.6  717  262           
00 01.08.11 280 (З) >10 км    3/0 верхняя 
[Ci fib]
+22.3 +17.7 75 +37  1007.7  0.5  718  263           
03 01.08.11 230 (ЮЗ) >10 км    3/0 верхняя 
[Ci fib]
+21.2 +19 87 +39  1008.1  0.3  718  264           
Время (UTC), дата Ветер
(°,м/с) 
Видим.   Явления Облачность Т
(°С)
Тd
(°С)
f(%) Тe
(°С)
Pmin
(гПа)
dP
(гПа)
Po
(мм)
O2
(г/м3)
Тmin Tmax R s Состояние
почвы